DLH49A KSEA-EDDF

Flight info

Callsign DLH49A
Flight time N/A
Altitude 37000
Route SEA1 SEA DCT ALPSE DCT YDC DCT ROMRA DCT 57N110W 5930N10000W 6130N09000W 63N080W DCT BEZED DCT KENKI/M079F390 DCT AVPUT DCT 65N050W 65N040W 6430N03000W 63N020W DCT RATSU/N0455F390 DCT DEVBI DCT WIK DCT LESNI DCT RIVOT/N0456F410 DCT UPNAL DCT ROLUM DCT TOPPA DCT AMGOD DCT PETIK P154 SPY DCT SOGPO DCT DIXAT DIXAT2C
Aircraft A343/H-SDE2E3FGHIJ3J5M1P2RWXYZ/LB1D1

Departure

Time N/A
Airport Seattle–Tacoma International Airport (KSEA)

Arrival

Time 2026-04-14 15:34
Airport Frankfurt Main Airport (EDDF)
Time Latitude Longitude Altitude Speed Heading
2026-04-14 13:45 58.92399 -4.16186 38998 ft 459 kts 130°
2026-04-14 13:45 58.88323 -4.06688 38998 ft 459 kts 130°
2026-04-14 13:46 58.84260 -3.97260 39000 ft 459 kts 130°
2026-04-14 13:46 58.80165 -3.87797 39002 ft 459 kts 130°
2026-04-14 13:47 58.76067 -3.78366 38998 ft 459 kts 130°
2026-04-14 13:47 58.71956 -3.68942 39002 ft 459 kts 130°
2026-04-14 13:48 58.67842 -3.59548 38998 ft 459 kts 130°
2026-04-14 13:48 58.63721 -3.50177 39002 ft 459 kts 130°
2026-04-14 13:49 58.59591 -3.40823 38998 ft 459 kts 130°
2026-04-14 13:49 58.55456 -3.31495 39002 ft 459 kts 130°
2026-04-14 13:50 58.51312 -3.22184 38998 ft 459 kts 130°
2026-04-14 13:50 58.47161 -3.12893 38998 ft 459 kts 130°
2026-04-14 13:51 58.42958 -3.03710 39003 ft 459 kts 133°
2026-04-14 13:51 58.38600 -2.94793 39002 ft 459 kts 133°
2026-04-14 13:52 58.34228 -2.85928 38998 ft 459 kts 133°
2026-04-14 13:52 58.29873 -2.77047 38998 ft 459 kts 133°
2026-04-14 13:53 58.25520 -2.68162 38998 ft 459 kts 133°
2026-04-14 13:53 58.21164 -2.59293 39007 ft 459 kts 133°
2026-04-14 13:54 58.16801 -2.50446 39000 ft 459 kts 133°
2026-04-14 13:54 58.12434 -2.41628 38998 ft 459 kts 133°
2026-04-14 13:55 58.08058 -2.32826 38998 ft 459 kts 133°
2026-04-14 13:55 58.03676 -2.24048 38998 ft 459 kts 133°
2026-04-14 13:56 57.99287 -2.15288 38998 ft 459 kts 133°
2026-04-14 13:56 57.94927 -2.06618 39001 ft 459 kts 134°
2026-04-14 13:57 57.90526 -1.97901 39003 ft 459 kts 134°
2026-04-14 13:57 57.86120 -1.89206 38998 ft 459 kts 134°
2026-04-14 13:58 57.81708 -1.80533 38998 ft 459 kts 134°
2026-04-14 13:58 57.77294 -1.71889 38998 ft 459 kts 134°
2026-04-14 13:59 57.72870 -1.63259 38998 ft 459 kts 134°
2026-04-14 13:59 57.68441 -1.54650 38998 ft 459 kts 134°
2026-04-14 14:00 57.64007 -1.46064 38998 ft 459 kts 134°
2026-04-14 14:00 57.59567 -1.37499 39005 ft 459 kts 134°
2026-04-14 14:01 57.55123 -1.28957 39001 ft 459 kts 134°
2026-04-14 14:01 57.50659 -1.20456 38998 ft 459 kts 135°
2026-04-14 14:02 57.46165 -1.12019 38998 ft 459 kts 135°
2026-04-14 14:02 57.41667 -1.03608 38998 ft 459 kts 135°
2026-04-14 14:03 57.37165 -0.95206 39000 ft 459 kts 135°
2026-04-14 14:03 57.32660 -0.86822 39002 ft 459 kts 135°
2026-04-14 14:04 57.28152 -0.78462 38998 ft 459 kts 135°
2026-04-14 14:04 57.23635 -0.70116 38998 ft 459 kts 135°
2026-04-14 14:05 57.19114 -0.61795 39000 ft 459 kts 135°
2026-04-14 14:05 57.14587 -0.53495 38998 ft 459 kts 135°
2026-04-14 14:06 57.10054 -0.45212 39001 ft 459 kts 135°
2026-04-14 14:06 57.05548 -0.37008 39006 ft 459 kts 135°
2026-04-14 14:07 57.01006 -0.28768 38998 ft 459 kts 135°
2026-04-14 14:07 56.96456 -0.20545 38998 ft 459 kts 135°
2026-04-14 14:08 56.91902 -0.12344 39001 ft 459 kts 135°
2026-04-14 14:08 56.87344 -0.04166 38998 ft 459 kts 136°
2026-04-14 14:09 56.82779 0.03996 38998 ft 459 kts 136°
2026-04-14 14:09 56.78209 0.12138 39003 ft 459 kts 136°
2026-04-14 14:10 56.73635 0.20256 39000 ft 459 kts 136°
2026-04-14 14:10 56.69052 0.28363 38998 ft 459 kts 136°
2026-04-14 14:11 56.64463 0.36450 38998 ft 459 kts 136°
2026-04-14 14:11 56.59874 0.44509 39000 ft 459 kts 136°
2026-04-14 14:12 56.55275 0.52556 39000 ft 459 kts 136°
2026-04-14 14:12 56.50673 0.60580 38998 ft 459 kts 136°
2026-04-14 14:13 56.46069 0.68580 38998 ft 459 kts 136°
2026-04-14 14:13 56.41486 0.76515 39174 ft 459 kts 136°
2026-04-14 14:13 56.39179 0.80504 39347 ft 459 kts 136°
2026-04-14 14:14 56.36865 0.84486 39520 ft 459 kts 136°
2026-04-14 14:14 56.34548 0.88455 39679 ft 459 kts 136°
2026-04-14 14:14 56.32233 0.92411 39853 ft 459 kts 136°
2026-04-14 14:14 56.29913 0.96368 40012 ft 459 kts 136°
2026-04-14 14:15 56.27592 1.00321 40170 ft 459 kts 136°
2026-04-14 14:15 56.25271 1.04270 40313 ft 459 kts 137°
2026-04-14 14:15 56.22951 1.08212 40473 ft 459 kts 137°
2026-04-14 14:15 56.20625 1.12157 40619 ft 459 kts 137°
2026-04-14 14:16 56.18301 1.16093 40764 ft 459 kts 137°
2026-04-14 14:16 56.15976 1.20023 40899 ft 459 kts 137°
2026-04-14 14:16 56.13647 1.23954 40990 ft 461 kts 137°
2026-04-14 14:17 56.06587 1.35828 41001 ft 465 kts 137°
2026-04-14 14:17 56.01874 1.43717 40999 ft 463 kts 137°
2026-04-14 14:18 55.97163 1.51577 41002 ft 463 kts 137°
2026-04-14 14:18 55.92448 1.59417 40999 ft 463 kts 137°
2026-04-14 14:19 55.87762 1.67181 41000 ft 463 kts 137°
2026-04-14 14:19 55.83036 1.74983 40999 ft 463 kts 137°
2026-04-14 14:20 55.78306 1.82766 41000 ft 463 kts 137°
2026-04-14 14:20 55.73574 1.90525 41000 ft 463 kts 137°
2026-04-14 14:21 55.68834 1.98270 41000 ft 463 kts 137°
2026-04-14 14:21 55.64089 2.05997 41000 ft 463 kts 137°
2026-04-14 14:22 55.59343 2.13700 41000 ft 463 kts 137°
2026-04-14 14:22 55.54588 2.21389 41000 ft 463 kts 137°
2026-04-14 14:23 55.49830 2.29057 41000 ft 463 kts 137°
2026-04-14 14:23 55.45067 2.36706 41001 ft 463 kts 138°
2026-04-14 14:24 55.39812 2.43198 41001 ft 462 kts 153°
2026-04-14 14:24 55.34053 2.48218 41000 ft 462 kts 155°
2026-04-14 14:25 55.28207 2.52966 41000 ft 463 kts 155°
2026-04-14 14:25 55.22362 2.57685 40999 ft 463 kts 155°
2026-04-14 14:26 55.16520 2.62429 41001 ft 463 kts 155°
2026-04-14 14:26 55.10685 2.67175 40999 ft 463 kts 155°
2026-04-14 14:27 55.04846 2.71914 41000 ft 463 kts 155°
2026-04-14 14:27 54.99044 2.76606 41000 ft 463 kts 155°
2026-04-14 14:28 54.93204 2.81312 41003 ft 463 kts 155°
2026-04-14 14:28 54.87359 2.86007 40999 ft 463 kts 155°
2026-04-14 14:29 54.81513 2.90687 40998 ft 463 kts 155°
2026-04-14 14:29 54.75667 2.95351 41000 ft 463 kts 155°
2026-04-14 14:30 54.69816 3.00004 41000 ft 463 kts 155°
2026-04-14 14:30 54.63964 3.04643 41003 ft 463 kts 155°
2026-04-14 14:31 54.59100 3.08488 40999 ft 463 kts 155°
2026-04-14 14:31 54.53246 3.13101 41002 ft 463 kts 155°
2026-04-14 14:32 54.47387 3.17705 40998 ft 463 kts 155°
2026-04-14 14:32 54.41531 3.22292 41002 ft 463 kts 155°
2026-04-14 14:33 54.35671 3.26869 41001 ft 463 kts 156°
2026-04-14 14:33 54.29683 3.30850 41002 ft 462 kts 167°
2026-04-14 14:34 54.20213 3.33928 41001 ft 462 kts 171°
2026-04-14 14:35 54.13865 3.35673 40998 ft 462 kts 171°
2026-04-14 14:35 54.07517 3.37428 41003 ft 462 kts 171°
2026-04-14 14:36 54.01169 3.39210 41001 ft 462 kts 171°
2026-04-14 14:36 53.94824 3.40998 41000 ft 462 kts 171°
2026-04-14 14:37 53.88478 3.42782 41001 ft 462 kts 171°
2026-04-14 14:37 53.82135 3.44559 41001 ft 462 kts 171°
2026-04-14 14:38 53.75788 3.46330 41003 ft 462 kts 171°
2026-04-14 14:38 53.69486 3.48083 41000 ft 462 kts 171°
2026-04-14 14:39 53.63139 3.49843 41000 ft 462 kts 171°
2026-04-14 14:39 53.56791 3.51598 41003 ft 462 kts 171°
2026-04-14 14:40 53.50444 3.53348 40998 ft 462 kts 171°
2026-04-14 14:40 53.44099 3.55092 40998 ft 462 kts 171°
2026-04-14 14:41 53.37752 3.56845 41003 ft 462 kts 171°
2026-04-14 14:41 53.31415 3.58694 41000 ft 462 kts 170°
2026-04-14 14:42 53.25079 3.60563 41000 ft 462 kts 170°
2026-04-14 14:42 53.18743 3.62414 40998 ft 462 kts 170°
2026-04-14 14:43 53.12409 3.64250 40998 ft 462 kts 170°
2026-04-14 14:43 53.06067 3.66080 40998 ft 462 kts 170°
2026-04-14 14:44 52.99800 3.68421 41001 ft 462 kts 160°
2026-04-14 14:44 52.94238 3.73509 41003 ft 462 kts 141°
2026-04-14 14:45 52.89343 3.80416 41001 ft 463 kts 138°
2026-04-14 14:45 52.84576 3.87597 41000 ft 463 kts 137°
2026-04-14 14:46 52.79805 3.94750 40999 ft 463 kts 138°
2026-04-14 14:46 52.75001 4.01848 40999 ft 463 kts 138°
2026-04-14 14:47 52.70181 4.08910 41000 ft 463 kts 139°
2026-04-14 14:47 52.65418 4.16050 40999 ft 463 kts 133°
2026-04-14 14:48 52.61744 4.24701 41001 ft 463 kts 114°
2026-04-14 14:48 52.59886 4.34801 41000 ft 463 kts 102°
2026-04-14 14:49 52.58668 4.45200 41003 ft 464 kts 100°
2026-04-14 14:49 52.57519 4.55638 41001 ft 464 kts 100°
2026-04-14 14:50 52.56328 4.66060 40999 ft 464 kts 101°
2026-04-14 14:50 52.55100 4.76464 40998 ft 464 kts 101°
2026-04-14 14:51 52.53237 4.86570 40999 ft 463 kts 116°
2026-04-14 14:51 52.49986 4.95681 40998 ft 463 kts 123°
2026-04-14 14:52 52.46435 5.04504 41000 ft 463 kts 124°
2026-04-14 14:52 52.42845 5.13268 40999 ft 463 kts 124°
2026-04-14 14:53 52.39290 5.21986 40999 ft 463 kts 124°
2026-04-14 14:53 52.35721 5.30764 40999 ft 463 kts 124°
2026-04-14 14:54 52.32147 5.39540 40999 ft 463 kts 124°
2026-04-14 14:54 52.28567 5.48298 40999 ft 463 kts 124°
2026-04-14 14:55 52.24979 5.57042 41001 ft 463 kts 124°
2026-04-14 14:55 52.21386 5.65768 40999 ft 464 kts 124°
2026-04-14 14:56 52.15980 5.78842 40999 ft 464 kts 124°
2026-04-14 14:56 52.12367 5.87544 41000 ft 464 kts 124°
2026-04-14 14:57 52.08747 5.96231 41000 ft 464 kts 124°
2026-04-14 14:57 52.05121 6.04905 41002 ft 464 kts 124°
2026-04-14 14:58 52.01488 6.13564 40999 ft 464 kts 124°
2026-04-14 14:58 51.97820 6.22167 40997 ft 464 kts 128°
2026-04-14 14:59 51.93268 6.29518 40999 ft 462 kts 140°
2026-04-14 14:59 51.88278 6.36107 41001 ft 463 kts 141°
2026-04-14 15:00 51.83263 6.42654 41001 ft 463 kts 141°
2026-04-14 15:00 51.78244 6.49183 41000 ft 463 kts 141°
2026-04-14 15:01 51.73225 6.55693 40921 ft 461 kts 141°
2026-04-14 15:01 51.70736 6.58915 40568 ft 457 kts 141°
2026-04-14 15:01 51.68261 6.62112 40128 ft 455 kts 141°
2026-04-14 15:02 51.65791 6.65301 39652 ft 455 kts 141°
2026-04-14 15:02 51.63324 6.68480 39161 ft 454 kts 141°
2026-04-14 15:02 51.60859 6.71652 38641 ft 454 kts 141°
2026-04-14 15:02 51.58426 6.74777 38156 ft 453 kts 141°
2026-04-14 15:03 51.55931 6.77979 37591 ft 453 kts 141°
2026-04-14 15:03 51.53486 6.81112 36777 ft 447 kts 141°
2026-04-14 15:03 51.51059 6.84217 35631 ft 446 kts 141°
2026-04-14 15:03 51.48631 6.87319 34362 ft 446 kts 141°
2026-04-14 15:04 51.46199 6.90422 33020 ft 447 kts 142°
2026-04-14 15:04 51.43743 6.93551 31781 ft 455 kts 142°
2026-04-14 15:04 51.41254 6.96717 31145 ft 456 kts 142°
2026-04-14 15:04 51.38761 6.99884 30885 ft 458 kts 142°
2026-04-14 15:05 51.36264 7.03052 30641 ft 457 kts 142°
2026-04-14 15:05 51.33774 7.06206 30398 ft 456 kts 142°
2026-04-14 15:05 51.31305 7.09329 30039 ft 449 kts 142°
2026-04-14 15:05 51.28864 7.12412 29538 ft 446 kts 142°
2026-04-14 15:06 51.26348 7.15263 29043 ft 442 kts 150°
2026-04-14 15:06 51.23654 7.17574 28538 ft 439 kts 153°
2026-04-14 15:06 51.20930 7.19736 28027 ft 436 kts 154°
2026-04-14 15:06 51.18220 7.21868 27518 ft 432 kts 154°
2026-04-14 15:07 51.15536 7.23983 27023 ft 429 kts 154°
2026-04-14 15:07 51.12868 7.26086 26504 ft 426 kts 154°
2026-04-14 15:07 51.10223 7.28182 25984 ft 424 kts 153°
2026-04-14 15:07 51.07613 7.30329 25482 ft 421 kts 153°
2026-04-14 15:08 51.05029 7.32473 24977 ft 417 kts 153°
2026-04-14 15:08 51.02464 7.34604 24473 ft 415 kts 153°
2026-04-14 15:08 50.99912 7.36713 23967 ft 412 kts 153°
2026-04-14 15:08 50.97405 7.38778 23470 ft 410 kts 153°
2026-04-14 15:09 50.94846 7.40882 22956 ft 408 kts 153°
2026-04-14 15:09 50.92338 7.42941 22455 ft 405 kts 153°
2026-04-14 15:09 50.89845 7.44984 21958 ft 402 kts 153°
2026-04-14 15:09 50.87376 7.47006 21467 ft 399 kts 153°
2026-04-14 15:10 50.84922 7.49021 20982 ft 395 kts 153°
2026-04-14 15:10 50.82485 7.51010 20498 ft 392 kts 153°
2026-04-14 15:10 50.80066 7.52981 20009 ft 389 kts 153°
2026-04-14 15:10 50.77668 7.54932 19546 ft 386 kts 153°
2026-04-14 15:11 50.75321 7.56841 19061 ft 383 kts 153°
2026-04-14 15:11 50.72958 7.58761 18602 ft 381 kts 153°
2026-04-14 15:11 50.70610 7.60668 18140 ft 378 kts 153°
2026-04-14 15:11 50.68278 7.62564 17676 ft 376 kts 153°
2026-04-14 15:12 50.65962 7.64442 17204 ft 373 kts 153°
2026-04-14 15:12 50.63662 7.66301 16759 ft 371 kts 153°
2026-04-14 15:12 50.61375 7.68147 16302 ft 368 kts 153°
2026-04-14 15:12 50.59104 7.69980 15856 ft 366 kts 153°
2026-04-14 15:13 50.56847 7.71801 15441 ft 363 kts 153°
2026-04-14 15:13 50.54604 7.73606 15026 ft 361 kts 153°
2026-04-14 15:13 50.52376 7.75398 14615 ft 359 kts 153°
2026-04-14 15:13 50.50160 7.77178 14205 ft 357 kts 153°
2026-04-14 15:14 50.47956 7.78947 13792 ft 355 kts 153°
2026-04-14 15:14 50.45767 7.80702 13391 ft 352 kts 153°
2026-04-14 15:14 50.43622 7.82532 12980 ft 350 kts 147°
2026-04-14 15:14 50.41661 7.84769 12648 ft 348 kts 142°
2026-04-14 15:15 50.39767 7.87121 12325 ft 346 kts 141°
2026-04-14 15:15 50.37886 7.89469 11979 ft 345 kts 142°
2026-04-14 15:15 50.36011 7.91804 11662 ft 344 kts 142°
2026-04-14 15:15 50.34145 7.94121 11325 ft 342 kts 142°
2026-04-14 15:16 50.32286 7.96425 11006 ft 340 kts 142°
2026-04-14 15:16 50.30452 7.98693 10811 ft 331 kts 142°
2026-04-14 15:16 50.28672 8.00890 10632 ft 321 kts 142°
2026-04-14 15:16 50.27028 8.03158 10455 ft 312 kts 131°
2026-04-14 15:17 50.25990 8.06060 10274 ft 303 kts 108°
2026-04-14 15:17 50.25434 8.09198 10102 ft 297 kts 104°
2026-04-14 15:17 50.24952 8.12298 10000 ft 292 kts 103°
2026-04-14 15:17 50.24471 8.15381 9998 ft 292 kts 104°
2026-04-14 15:18 50.24149 8.17420 9999 ft 292 kts 104°
2026-04-14 15:18 50.23658 8.20498 10000 ft 292 kts 104°
2026-04-14 15:18 50.23165 8.23564 9849 ft 290 kts 104°
2026-04-14 15:18 50.22673 8.26610 9502 ft 289 kts 104°
2026-04-14 15:19 50.22181 8.29647 9249 ft 286 kts 104°
2026-04-14 15:19 50.21700 8.32610 9120 ft 278 kts 104°
2026-04-14 15:19 50.21209 8.35485 8992 ft 270 kts 108°
2026-04-14 15:19 50.20361 8.38036 8827 ft 263 kts 130°
2026-04-14 15:20 50.18970 8.39802 8696 ft 256 kts 153°
2026-04-14 15:20 50.17340 8.40872 8491 ft 253 kts 160°
2026-04-14 15:20 50.15684 8.41796 8259 ft 251 kts 161°
2026-04-14 15:20 50.14011 8.42535 8008 ft 250 kts 173°
2026-04-14 15:21 50.12297 8.42340 7743 ft 248 kts 199°
2026-04-14 15:21 50.10839 8.40978 7483 ft 246 kts 226°
2026-04-14 15:21 50.09911 8.38771 7238 ft 244 kts 247°
2026-04-14 15:21 50.09297 8.36315 6981 ft 243 kts 250°
2026-04-14 15:22 50.08725 8.33846 6732 ft 242 kts 250°
2026-04-14 15:22 50.08148 8.31387 6491 ft 241 kts 250°
2026-04-14 15:22 50.07566 8.28943 6250 ft 240 kts 250°
2026-04-14 15:22 50.06983 8.26513 6000 ft 239 kts 250°
2026-04-14 15:23 50.06397 8.24092 5758 ft 238 kts 249°
2026-04-14 15:23 50.05820 8.21713 5509 ft 238 kts 249°
2026-04-14 15:23 50.05237 8.19317 5259 ft 237 kts 249°
2026-04-14 15:23 50.04654 8.16924 5002 ft 236 kts 249°
2026-04-14 15:24 50.04075 8.14552 4842 ft 234 kts 249°
2026-04-14 15:24 50.03496 8.12181 4803 ft 235 kts 249°
2026-04-14 15:24 50.02917 8.09807 4803 ft 235 kts 249°
2026-04-14 15:24 50.02340 8.07430 4804 ft 235 kts 249°
2026-04-14 15:25 50.01761 8.05060 4817 ft 235 kts 249°
2026-04-14 15:25 50.01164 8.02660 4801 ft 235 kts 246°
2026-04-14 15:25 50.00209 8.00679 4821 ft 234 kts 217°
2026-04-14 15:25 49.98763 7.99761 4796 ft 221 kts 185°
2026-04-14 15:26 49.97302 8.00189 4802 ft 214 kts 151°
2026-04-14 15:26 49.96260 8.01797 4819 ft 214 kts 117°
2026-04-14 15:26 49.95745 8.03969 4803 ft 216 kts 105°
2026-04-14 15:26 49.95376 8.06231 4809 ft 217 kts 103°
2026-04-14 15:27 49.95026 8.08512 4803 ft 217 kts 103°
2026-04-14 15:27 49.94768 8.10820 4805 ft 218 kts 90°
2026-04-14 15:27 49.94975 8.13136 4816 ft 215 kts 73°
2026-04-14 15:27 49.95446 8.15247 4832 ft 198 kts 69°
2026-04-14 15:28 49.95916 8.17171 4799 ft 186 kts 69°
2026-04-14 15:28 49.96366 8.19043 4716 ft 184 kts 70°
2026-04-14 15:28 49.96804 8.20911 4488 ft 184 kts 70°
2026-04-14 15:28 49.97248 8.22769 4197 ft 183 kts 69°
2026-04-14 15:29 49.97694 8.24618 3900 ft 182 kts 69°
2026-04-14 15:29 49.98136 8.26462 3623 ft 182 kts 69°
2026-04-14 15:29 49.98577 8.28300 3368 ft 181 kts 69°
2026-04-14 15:29 49.99009 8.30100 3107 ft 172 kts 69°
2026-04-14 15:30 49.99407 8.31764 2871 ft 159 kts 69°
2026-04-14 15:30 49.99780 8.33319 2644 ft 148 kts 69°
2026-04-14 15:30 50.00126 8.34764 2437 ft 138 kts 69°
2026-04-14 15:30 50.00459 8.36151 2263 ft 137 kts 69°
2026-04-14 15:31 50.00792 8.37540 2066 ft 137 kts 69°
2026-04-14 15:31 50.01123 8.38923 1873 ft 137 kts 69°
2026-04-14 15:31 50.01455 8.40308 1685 ft 136 kts 69°
2026-04-14 15:31 50.01785 8.41686 1477 ft 136 kts 69°
2026-04-14 15:32 50.02114 8.43060 1295 ft 135 kts 69°
2026-04-14 15:32 50.02442 8.44429 1097 ft 135 kts 69°
2026-04-14 15:32 50.02770 8.45797 913 ft 135 kts 69°
2026-04-14 15:32 50.03095 8.47156 726 ft 134 kts 69°
2026-04-14 15:33 50.03420 8.48513 530 ft 134 kts 69°
2026-04-14 15:33 50.03743 8.49858 365 ft 133 kts 69°
2026-04-14 15:33 50.04041 8.51091 331 ft 96 kts 69°
2026-04-14 15:33 50.04230 8.51888 350 ft 68 kts 70°
2026-04-14 15:34 50.04340 8.52349 351 ft 34 kts 70°
2026-04-14 15:34 50.04396 8.52693 358 ft 32 kts 86°
2026-04-14 15:34 50.04369 8.53027 365 ft 30 kts 100°
2026-04-14 15:34 50.04357 8.53327 376 ft 25 kts 75°
2026-04-14 15:35 50.04399 8.53564 379 ft 22 kts 83°
2026-04-14 15:35 50.04414 8.53806 379 ft 23 kts 85°
2026-04-14 15:35 50.04431 8.54060 380 ft 24 kts 84°
2026-04-14 15:35 50.04448 8.54327 378 ft 24 kts 84°
2026-04-14 15:36 50.04429 8.54590 371 ft 25 kts 115°
2026-04-14 15:36 50.04305 8.54777 366 ft 25 kts 154°
2026-04-14 15:36 50.04145 8.54866 364 ft 18 kts 160°
2026-04-14 15:36 50.04089 8.54898 359 ft 0 kts 160°
2026-04-14 15:37 50.04088 8.54899 359 ft 1 kts 160°
2026-04-14 15:37 50.04032 8.54940 364 ft 11 kts 138°
2026-04-14 15:38 50.04027 8.55042 363 ft 13 kts 76°
2026-04-14 15:38 50.04067 8.55228 362 ft 22 kts 71°
2026-04-14 15:38 50.04130 8.55486 360 ft 28 kts 69°
2026-04-14 15:38 50.04200 8.55775 364 ft 29 kts 69°
2026-04-14 15:39 50.04271 8.56071 366 ft 29 kts 69°
2026-04-14 15:39 50.04342 8.56368 364 ft 29 kts 70°
2026-04-14 15:39 50.04408 8.56644 367 ft 20 kts 70°
2026-04-14 15:39 50.04450 8.56815 371 ft 15 kts 62°
2026-04-14 15:40 50.04525 8.56881 366 ft 10 kts 15°
2026-04-14 15:40 50.04574 8.56862 369 ft 8 kts 311°
2026-04-14 15:40 50.04595 8.56809 368 ft 4 kts 298°
2026-04-14 15:40 50.04603 8.56786 367 ft 1 kts 296°
2026-04-14 15:41 50.04604 8.56781 366 ft 0 kts 296°